UAE5JM OMDB-WMKK

Flight info

Callsign UAE5JM
Flight time 6h 36m
Altitude 37000
Route IVURO M677 LALDO B505 NADSO A777 VAXIM P307 PARAR N571 BIKEN/N0476F390 N571 GUNIP Y347 KAKAK
Aircraft B77W/H-SDE1E2E3FGHIJ2J3J4J5M1RWXYZ/LB1D1

Departure

Time 2026-04-25 06:49
Airport Dubai International Airport (OMDB)

Arrival

Time 2026-04-25 13:25
Airport Kuala Lumpur International Airport (WMKK)
Time Latitude Longitude Altitude Speed Heading
2026-04-25 05:19 25.25092 55.35926 29 ft 0 kts 211°
2026-04-25 06:28 25.25107 55.35936 32 ft 3 kts 211°
2026-04-25 06:28 25.25122 55.35946 32 ft 3 kts 215°
2026-04-25 06:28 25.25138 55.35960 32 ft 3 kts 229°
2026-04-25 06:29 25.25149 55.35978 32 ft 3 kts 247°
2026-04-25 06:29 25.25155 55.35998 32 ft 3 kts 270°
2026-04-25 06:29 25.25152 55.36019 32 ft 3 kts 296°
2026-04-25 06:29 25.25142 55.36038 32 ft 3 kts 302°
2026-04-25 06:30 25.25131 55.36057 32 ft 3 kts 302°
2026-04-25 06:30 25.25121 55.36076 32 ft 2 kts 302°
2026-04-25 06:30 25.25120 55.36078 32 ft 0 kts 302°
2026-04-25 06:33 25.25120 55.36077 32 ft 0 kts 302°
2026-04-25 06:33 25.25123 55.36072 32 ft 1 kts 302°
2026-04-25 06:33 25.25128 55.36063 32 ft 2 kts 302°
2026-04-25 06:33 25.25136 55.36049 32 ft 3 kts 302°
2026-04-25 06:34 25.25152 55.36020 32 ft 6 kts 301°
2026-04-25 06:34 25.25177 55.35976 30 ft 8 kts 302°
2026-04-25 06:34 25.25210 55.35918 29 ft 10 kts 302°
2026-04-25 06:34 25.25251 55.35844 29 ft 12 kts 302°
2026-04-25 06:35 25.25283 55.35787 29 ft 14 kts 302°
2026-04-25 06:35 25.25336 55.35693 29 ft 14 kts 302°
2026-04-25 06:35 25.25388 55.35600 29 ft 14 kts 302°
2026-04-25 06:35 25.25441 55.35505 31 ft 14 kts 302°
2026-04-25 06:36 25.25493 55.35412 29 ft 14 kts 301°
2026-04-25 06:36 25.25546 55.35318 29 ft 14 kts 302°
2026-04-25 06:36 25.25597 55.35228 28 ft 11 kts 302°
2026-04-25 06:36 25.25630 55.35170 30 ft 6 kts 302°
2026-04-25 06:37 25.25666 55.35149 30 ft 7 kts
2026-04-25 06:37 25.25707 55.35173 30 ft 7 kts 31°
2026-04-25 06:37 25.25755 55.35205 29 ft 9 kts 31°
2026-04-25 06:37 25.25814 55.35244 29 ft 11 kts 31°
2026-04-25 06:38 25.25882 55.35290 29 ft 12 kts 31°
2026-04-25 06:38 25.25950 55.35337 30 ft 12 kts 38°
2026-04-25 06:38 25.25997 55.35408 26 ft 12 kts 67°
2026-04-25 06:38 25.26006 55.35496 26 ft 12 kts 97°
2026-04-25 06:39 25.25976 55.35578 27 ft 12 kts 120°
2026-04-25 06:39 25.25926 55.35667 26 ft 15 kts 122°
2026-04-25 06:39 25.25867 55.35772 26 ft 17 kts 122°
2026-04-25 06:39 25.25801 55.35890 27 ft 19 kts 122°
2026-04-25 06:40 25.25727 55.36021 27 ft 21 kts 122°
2026-04-25 06:40 25.25645 55.36168 27 ft 24 kts 122°
2026-04-25 06:40 25.25555 55.36328 27 ft 25 kts 122°
2026-04-25 06:40 25.25465 55.36487 27 ft 24 kts 122°
2026-04-25 06:41 25.25385 55.36630 26 ft 20 kts 122°
2026-04-25 06:41 25.25311 55.36762 27 ft 20 kts 122°
2026-04-25 06:41 25.25237 55.36894 27 ft 20 kts 122°
2026-04-25 06:41 25.25163 55.37025 27 ft 20 kts 122°
2026-04-25 06:42 25.25089 55.37157 28 ft 20 kts 122°
2026-04-25 06:42 25.25015 55.37289 28 ft 20 kts 122°
2026-04-25 06:42 25.24940 55.37420 28 ft 20 kts 122°
2026-04-25 06:42 25.24870 55.37545 28 ft 16 kts 122°
2026-04-25 06:43 25.24815 55.37644 28 ft 15 kts 122°
2026-04-25 06:43 25.24763 55.37736 28 ft 11 kts 122°
2026-04-25 06:43 25.24725 55.37804 27 ft 10 kts 122°
2026-04-25 06:43 25.24688 55.37868 27 ft 10 kts 123°
2026-04-25 06:44 25.24662 55.37910 27 ft 4 kts 124°
2026-04-25 06:44 25.24655 55.37941 27 ft 4 kts 76°
2026-04-25 06:44 25.24678 55.37963 28 ft 3 kts 32°
2026-04-25 06:44 25.24680 55.37964 28 ft 0 kts 32°
2026-04-25 06:46 25.24696 55.37975 28 ft 5 kts 32°
2026-04-25 06:46 25.24730 55.37999 29 ft 6 kts 32°
2026-04-25 06:47 25.24765 55.38023 30 ft 6 kts 32°
2026-04-25 06:47 25.24803 55.38027 30 ft 6 kts 327°
2026-04-25 06:47 25.24818 55.38002 30 ft 0 kts 302°
2026-04-25 06:48 25.24823 55.37994 30 ft 9 kts 302°
2026-04-25 06:48 25.24956 55.37756 30 ft 73 kts 301°
2026-04-25 06:48 25.25349 55.37048 30 ft 141 kts 301°
2026-04-25 06:49 25.25951 55.35958 147 ft 180 kts 301°
2026-04-25 06:49 25.26606 55.34760 781 ft 184 kts 301°
2026-04-25 06:49 25.27286 55.33546 1417 ft 187 kts 302°
2026-04-25 06:49 25.28008 55.32255 1793 ft 208 kts 303°
2026-04-25 06:50 25.28804 55.30842 2252 ft 222 kts 303°
2026-04-25 06:50 25.29894 55.29643 2766 ft 228 kts 338°
2026-04-25 06:50 25.31459 55.29418 3401 ft 230 kts
2026-04-25 06:50 25.33076 55.29516 4004 ft 235 kts
2026-04-25 06:51 25.34722 55.29570 4761 ft 236 kts
2026-04-25 06:51 25.36345 55.29625 5507 ft 237 kts
2026-04-25 06:51 25.37988 55.30204 5755 ft 263 kts 35°
2026-04-25 06:51 25.39109 55.31872 6178 ft 283 kts 71°
2026-04-25 06:52 25.39292 55.34066 6752 ft 291 kts 94°
2026-04-25 06:52 25.39111 55.36309 7204 ft 306 kts 95°
2026-04-25 06:52 25.38902 55.38761 7387 ft 333 kts 95°
2026-04-25 06:52 25.38676 55.41406 7616 ft 357 kts 95°
2026-04-25 06:53 25.38441 55.44184 8188 ft 368 kts 95°
2026-04-25 06:53 25.38206 55.47034 8890 ft 374 kts 95°
2026-04-25 06:53 25.37974 55.49914 9683 ft 377 kts 96°
2026-04-25 06:53 25.37745 55.52817 10439 ft 380 kts 96°
2026-04-25 06:54 25.37516 55.55739 11152 ft 383 kts 95°
2026-04-25 06:54 25.37286 55.58689 11847 ft 387 kts 95°
2026-04-25 06:54 25.37055 55.61671 12006 ft 392 kts 95°
2026-04-25 06:54 25.36823 55.64669 12001 ft 391 kts 95°
2026-04-25 06:55 25.36591 55.67661 11998 ft 389 kts 95°
2026-04-25 06:55 25.36360 55.70634 11993 ft 388 kts 95°
2026-04-25 06:55 25.36128 55.73607 11990 ft 388 kts 95°
2026-04-25 06:55 25.35896 55.76571 11987 ft 388 kts 95°
2026-04-25 06:56 25.35662 55.79549 11989 ft 388 kts 95°
2026-04-25 06:56 25.35429 55.82506 11995 ft 388 kts 95°
2026-04-25 06:56 25.35193 55.85490 11998 ft 388 kts 95°
2026-04-25 06:56 25.34958 55.88459 11997 ft 389 kts 96°
2026-04-25 06:57 25.34721 55.91442 11996 ft 389 kts 95°
2026-04-25 06:57 25.34485 55.94419 12000 ft 389 kts 96°
2026-04-25 06:57 25.34249 55.97398 11990 ft 390 kts 96°
2026-04-25 06:57 25.34009 56.00396 12371 ft 393 kts 95°
2026-04-25 06:58 25.33767 56.03410 13210 ft 393 kts 96°
2026-04-25 06:58 25.33523 56.06435 13952 ft 397 kts 96°
2026-04-25 06:58 25.33277 56.09486 14616 ft 400 kts 96°
2026-04-25 06:58 25.33032 56.12520 15271 ft 404 kts 96°
2026-04-25 06:59 25.32780 56.15630 15913 ft 408 kts 96°
2026-04-25 06:59 25.32523 56.18766 16584 ft 411 kts 96°
2026-04-25 06:59 25.32259 56.21925 17241 ft 415 kts 96°
2026-04-25 06:59 25.31994 56.25119 17886 ft 420 kts 96°
2026-04-25 07:00 25.31725 56.28351 18497 ft 424 kts 97°
2026-04-25 07:00 25.31452 56.31618 19033 ft 429 kts 96°
2026-04-25 07:00 25.31176 56.34920 19548 ft 435 kts 96°
2026-04-25 07:00 25.30893 56.38275 20071 ft 440 kts 96°
2026-04-25 07:01 25.30697 56.41663 20613 ft 445 kts 93°
2026-04-25 07:01 25.30606 56.45108 21165 ft 450 kts 92°
2026-04-25 07:01 25.30527 56.48590 21703 ft 455 kts 92°
2026-04-25 07:01 25.30435 56.52113 22234 ft 460 kts 92°
2026-04-25 07:02 25.30310 56.55665 22748 ft 465 kts 95°
2026-04-25 07:02 25.29879 56.59226 23219 ft 471 kts 102°
2026-04-25 07:02 25.29090 56.62760 23675 ft 475 kts 108°
2026-04-25 07:02 25.27987 56.66152 24109 ft 477 kts 114°
2026-04-25 07:03 25.26673 56.69583 24598 ft 480 kts 115°
2026-04-25 07:03 25.25368 56.72944 25072 ft 483 kts 115°
2026-04-25 07:03 25.24039 56.76362 25534 ft 487 kts 115°
2026-04-25 07:03 25.22701 56.79826 26009 ft 491 kts 115°
2026-04-25 07:04 25.21365 56.83308 26453 ft 494 kts 114°
2026-04-25 07:04 25.20024 56.86823 26913 ft 498 kts 114°
2026-04-25 07:04 25.18680 56.90354 27387 ft 501 kts 114°
2026-04-25 07:04 25.17327 56.93913 27838 ft 505 kts 114°
2026-04-25 07:05 25.15960 56.97509 28270 ft 508 kts 114°
2026-04-25 07:05 25.14584 57.01123 28696 ft 512 kts 115°
2026-04-25 07:05 25.13199 57.04758 29127 ft 515 kts 115°
2026-04-25 07:05 25.11805 57.08408 29546 ft 518 kts 115°
2026-04-25 07:06 25.10400 57.12085 29932 ft 522 kts 115°
2026-04-25 07:06 25.08990 57.15771 30384 ft 521 kts 115°
2026-04-25 07:06 25.07582 57.19453 30885 ft 519 kts 114°
2026-04-25 07:06 25.06177 57.23121 31372 ft 518 kts 114°
2026-04-25 07:07 25.04779 57.26768 31857 ft 516 kts 114°
2026-04-25 07:07 25.03380 57.30414 32312 ft 516 kts 114°
2026-04-25 07:07 25.01981 57.34056 32742 ft 515 kts 114°
2026-04-25 07:07 25.00600 57.37649 33184 ft 514 kts 114°
2026-04-25 07:08 24.99203 57.41278 33625 ft 513 kts 114°
2026-04-25 07:08 24.97813 57.44888 34159 ft 509 kts 114°
2026-04-25 07:08 24.96434 57.48465 34531 ft 508 kts 114°
2026-04-25 07:08 24.95044 57.52068 34787 ft 510 kts 114°
2026-04-25 07:09 24.93655 57.55666 35045 ft 512 kts 114°
2026-04-25 07:09 24.92258 57.59280 35344 ft 512 kts 114°
2026-04-25 07:09 24.90867 57.62879 35648 ft 512 kts 114°
2026-04-25 07:09 24.89466 57.66498 35946 ft 513 kts 114°
2026-04-25 07:10 24.88068 57.70109 36238 ft 513 kts 114°
2026-04-25 07:10 24.86667 57.73722 36506 ft 513 kts 114°
2026-04-25 07:10 24.85263 57.77344 36767 ft 514 kts 114°
2026-04-25 07:11 24.82419 57.84614 36930 ft 519 kts 115°
2026-04-25 07:11 24.79336 57.91735 36911 ft 515 kts 117°
2026-04-25 07:12 24.76183 57.98757 36914 ft 510 kts 117°
2026-04-25 07:12 24.71539 58.09259 36914 ft 508 kts 117°
2026-04-25 07:13 24.68470 58.16255 36914 ft 508 kts 117°
2026-04-25 07:13 24.65392 58.23265 36920 ft 510 kts 117°
2026-04-25 07:14 24.62297 58.30295 36914 ft 511 kts 117°
2026-04-25 07:14 24.59195 58.37328 36914 ft 512 kts 117°
2026-04-25 07:15 24.56083 58.44372 36913 ft 513 kts 117°
2026-04-25 07:15 24.52964 58.51423 36910 ft 513 kts 117°
2026-04-25 07:16 24.49841 58.58470 36914 ft 513 kts 117°
2026-04-25 07:16 24.46708 58.65531 36897 ft 514 kts 116°
2026-04-25 07:17 24.43677 58.72354 36911 ft 515 kts 116°
2026-04-25 07:17 24.40536 58.79415 36911 ft 516 kts 116°
2026-04-25 07:18 24.37395 58.86489 36913 ft 516 kts 116°
2026-04-25 07:18 24.34251 58.93567 36912 ft 516 kts 116°
2026-04-25 07:19 24.31631 58.99455 36910 ft 517 kts 116°
2026-04-25 07:19 24.28473 59.06540 36903 ft 517 kts 116°
2026-04-25 07:20 24.25319 59.13605 36914 ft 516 kts 116°
2026-04-25 07:20 24.22161 59.20671 36906 ft 517 kts 116°
2026-04-25 07:21 24.19013 59.27700 36910 ft 517 kts 116°
2026-04-25 07:21 24.15844 59.34768 36914 ft 516 kts 116°
2026-04-25 07:22 24.12676 59.41823 36907 ft 516 kts 116°
2026-04-25 07:22 24.09510 59.48865 36905 ft 515 kts 116°
2026-04-25 07:23 24.06340 59.55892 36906 ft 514 kts 116°
2026-04-25 07:23 24.03165 59.62906 36909 ft 513 kts 116°
2026-04-25 07:24 23.99994 59.69907 36904 ft 512 kts 116°
2026-04-25 07:24 23.96829 59.76887 36908 ft 511 kts 116°
2026-04-25 07:25 23.93667 59.83849 36906 ft 511 kts 116°
2026-04-25 07:25 23.90507 59.90799 36909 ft 510 kts 116°
2026-04-25 07:26 23.87360 59.97709 36909 ft 510 kts 116°
2026-04-25 07:26 23.84194 60.04650 36910 ft 510 kts 116°
2026-04-25 07:27 23.81027 60.11583 36908 ft 511 kts 116°
2026-04-25 07:27 23.77847 60.18535 36908 ft 511 kts 116°
2026-04-25 07:28 23.74666 60.25478 36907 ft 511 kts 116°
2026-04-25 07:28 23.71481 60.32419 36907 ft 512 kts 116°
2026-04-25 07:29 23.68283 60.39381 36911 ft 512 kts 116°
2026-04-25 07:29 23.65109 60.46279 36906 ft 512 kts 116°
2026-04-25 07:30 23.62017 60.52988 36905 ft 512 kts 116°
2026-04-25 07:30 23.58818 60.59920 36910 ft 512 kts 116°
2026-04-25 07:31 23.55613 60.66856 36906 ft 512 kts 116°
2026-04-25 07:31 23.52414 60.73770 36906 ft 511 kts 116°
2026-04-25 07:32 23.49203 60.80698 36912 ft 511 kts 116°
2026-04-25 07:32 23.46021 60.87554 36908 ft 510 kts 116°
2026-04-25 07:33 23.42822 60.94438 36909 ft 509 kts 116°
2026-04-25 07:33 23.39621 61.01315 36909 ft 509 kts 116°
2026-04-25 07:34 23.36417 61.08190 36914 ft 509 kts 116°
2026-04-25 07:34 23.33217 61.15049 36910 ft 508 kts 116°
2026-04-25 07:35 23.30047 61.21910 36909 ft 507 kts 115°
2026-04-25 07:35 23.26982 61.28828 36912 ft 507 kts 114°
2026-04-25 07:36 23.23927 61.35751 36917 ft 507 kts 115°
2026-04-25 07:36 23.20855 61.42656 36914 ft 507 kts 115°
2026-04-25 07:37 23.17796 61.49502 36913 ft 507 kts 115°
2026-04-25 07:37 23.14713 61.56393 36909 ft 506 kts 115°
2026-04-25 07:38 23.11631 61.63273 36912 ft 506 kts 115°
2026-04-25 07:38 23.08553 61.70139 36915 ft 505 kts 115°
2026-04-25 07:39 23.05472 61.77000 36915 ft 505 kts 115°
2026-04-25 07:39 23.02393 61.83851 36915 ft 505 kts 115°
2026-04-25 07:40 22.99313 61.90701 36916 ft 505 kts 115°
2026-04-25 07:40 22.96234 61.97541 36915 ft 505 kts 115°
2026-04-25 07:41 22.93170 62.04337 36916 ft 504 kts 115°
2026-04-25 07:41 22.90086 62.11167 36914 ft 503 kts 115°
2026-04-25 07:42 22.87008 62.17975 36914 ft 503 kts 115°
2026-04-25 07:42 22.83925 62.24782 36918 ft 503 kts 115°
2026-04-25 07:43 22.80844 62.31579 36917 ft 502 kts 115°
2026-04-25 07:43 22.77758 62.38377 36918 ft 502 kts 115°
2026-04-25 07:44 22.74797 62.44890 36916 ft 502 kts 115°
2026-04-25 07:44 22.71706 62.51678 36919 ft 503 kts 115°
2026-04-25 07:45 22.68611 62.58467 36921 ft 503 kts 115°
2026-04-25 07:45 22.65514 62.65252 36918 ft 503 kts 115°
2026-04-25 07:46 22.62415 62.72031 36918 ft 503 kts 115°
2026-04-25 07:46 22.59329 62.78773 36918 ft 503 kts 115°
2026-04-25 07:47 22.56221 62.85553 36924 ft 503 kts 115°
2026-04-25 07:47 22.53112 62.92326 36922 ft 503 kts 115°
2026-04-25 07:48 22.49998 62.99103 36920 ft 502 kts 115°
2026-04-25 07:48 22.46888 63.05864 36921 ft 502 kts 115°
2026-04-25 07:49 22.43774 63.12624 36918 ft 502 kts 115°
2026-04-25 07:49 22.40719 63.19411 36917 ft 502 kts 114°
2026-04-25 07:50 22.37691 63.26218 36919 ft 502 kts 114°
2026-04-25 07:50 22.34658 63.33018 36918 ft 502 kts 114°
2026-04-25 07:51 22.31616 63.39806 36917 ft 502 kts 114°
2026-04-25 07:51 22.28569 63.46589 36921 ft 502 kts 114°
2026-04-25 07:52 22.25520 63.53367 36916 ft 502 kts 114°
2026-04-25 07:52 22.22493 63.60087 36918 ft 501 kts 114°
2026-04-25 07:53 22.19445 63.66847 36918 ft 501 kts 114°
2026-04-25 07:53 22.16392 63.73607 36917 ft 501 kts 114°
2026-04-25 07:54 22.13338 63.80361 36909 ft 500 kts 115°
2026-04-25 07:54 22.10284 63.87106 36913 ft 499 kts 115°
2026-04-25 07:55 22.07239 63.93822 36912 ft 498 kts 115°
2026-04-25 07:55 22.04193 64.00531 36915 ft 498 kts 115°
2026-04-25 07:56 22.01150 64.07225 36916 ft 497 kts 115°
2026-04-25 07:56 21.98103 64.13920 36912 ft 497 kts 115°
2026-04-25 07:57 21.95056 64.20604 36913 ft 497 kts 115°
2026-04-25 07:57 21.92004 64.27291 36912 ft 497 kts 115°
2026-04-25 07:58 21.88952 64.33970 36914 ft 497 kts 115°
2026-04-25 07:58 21.85916 64.40604 36915 ft 497 kts 115°
2026-04-25 07:59 21.82852 64.47291 36911 ft 497 kts 115°
2026-04-25 07:59 21.79794 64.53956 36912 ft 496 kts 115°
2026-04-25 08:00 21.76732 64.60622 36912 ft 496 kts 115°
2026-04-25 08:00 21.73673 64.67273 36916 ft 496 kts 115°
2026-04-25 08:01 21.70612 64.73918 36910 ft 496 kts 115°
2026-04-25 08:01 21.67547 64.80565 36914 ft 496 kts 115°
2026-04-25 08:02 21.64503 64.87157 36912 ft 496 kts 115°
2026-04-25 08:02 21.61416 64.93832 36913 ft 495 kts 115°
2026-04-25 08:03 21.58368 65.00418 36913 ft 495 kts 115°
2026-04-25 08:03 21.55398 65.06823 36909 ft 495 kts 115°
2026-04-25 08:04 21.52326 65.13444 36906 ft 495 kts 115°
2026-04-25 08:04 21.49250 65.20063 36907 ft 495 kts 115°
2026-04-25 08:05 21.46176 65.26670 36908 ft 495 kts 115°
2026-04-25 08:05 21.43616 65.32166 36913 ft 495 kts 115°
2026-04-25 08:06 21.40535 65.38772 36910 ft 496 kts 115°
2026-04-25 08:06 21.37444 65.45392 36910 ft 496 kts 115°
2026-04-25 08:07 21.34347 65.52017 36904 ft 496 kts 115°
2026-04-25 08:07 21.31251 65.58629 36910 ft 496 kts 115°
2026-04-25 08:08 21.28147 65.65253 36907 ft 497 kts 115°
2026-04-25 08:08 21.25064 65.71822 36908 ft 497 kts 115°
2026-04-25 08:09 21.21952 65.78445 36904 ft 497 kts 115°
2026-04-25 08:09 21.18841 65.85059 36904 ft 497 kts 115°
2026-04-25 08:10 21.15725 65.91674 36904 ft 497 kts 115°
2026-04-25 08:10 21.12612 65.98277 36910 ft 496 kts 115°
2026-04-25 08:11 21.09535 66.04893 36902 ft 496 kts 115°
2026-04-25 08:11 21.06530 66.11538 36904 ft 495 kts 114°
2026-04-25 08:12 21.03528 66.18184 36904 ft 495 kts 115°
2026-04-25 08:12 21.00538 66.24770 36905 ft 494 kts 115°
2026-04-25 08:13 20.97523 66.31384 36903 ft 494 kts 115°
2026-04-25 08:14 20.93139 66.40983 36905 ft 492 kts 115°
2026-04-25 08:14 20.90132 66.47560 36903 ft 492 kts 115°
2026-04-25 08:15 20.87125 66.54126 36902 ft 491 kts 115°
2026-04-25 08:15 20.84138 66.60644 36911 ft 491 kts 115°
2026-04-25 08:16 20.81131 66.67196 36902 ft 491 kts 115°
2026-04-25 08:16 20.78126 66.73736 36902 ft 490 kts 115°
2026-04-25 08:17 20.75117 66.80277 36897 ft 489 kts 115°
2026-04-25 08:17 20.72114 66.86795 36898 ft 489 kts 115°
2026-04-25 08:18 20.69110 66.93309 36902 ft 488 kts 115°
2026-04-25 08:18 20.66104 66.99821 36897 ft 488 kts 115°
2026-04-25 08:19 20.63101 67.06317 36894 ft 488 kts 115°
2026-04-25 08:19 20.60113 67.12772 36892 ft 487 kts 115°
2026-04-25 08:20 20.57106 67.19261 36896 ft 487 kts 115°
2026-04-25 08:20 20.54099 67.25742 36897 ft 488 kts 115°
2026-04-25 08:21 20.51086 67.32229 36893 ft 488 kts 115°
2026-04-25 08:21 20.48071 67.38712 36891 ft 488 kts 115°
2026-04-25 08:22 20.45056 67.45186 36895 ft 488 kts 115°
2026-04-25 08:22 20.42036 67.51664 36895 ft 488 kts 115°
2026-04-25 08:23 20.39015 67.58138 36890 ft 488 kts 115°
2026-04-25 08:23 20.35991 67.64609 36889 ft 488 kts 115°
2026-04-25 08:24 20.32965 67.71078 36886 ft 488 kts 115°
2026-04-25 08:24 20.29938 67.77540 36882 ft 488 kts 115°
2026-04-25 08:25 20.26926 67.83964 36898 ft 488 kts 115°
2026-04-25 08:25 20.23873 67.90467 36893 ft 488 kts 115°
2026-04-25 08:26 20.20856 67.96886 36886 ft 488 kts 115°
2026-04-25 08:26 20.17820 68.03337 36883 ft 488 kts 115°
2026-04-25 08:27 20.14778 68.09794 36896 ft 488 kts 115°
2026-04-25 08:27 20.11729 68.16259 36893 ft 488 kts 115°
2026-04-25 08:28 20.08681 68.22713 36886 ft 488 kts 115°
2026-04-25 08:28 20.05634 68.29158 36889 ft 488 kts 115°
2026-04-25 08:29 20.02578 68.35616 36886 ft 489 kts 115°
2026-04-25 08:29 19.99517 68.42075 36890 ft 489 kts 115°
2026-04-25 08:30 19.96453 68.48534 36884 ft 489 kts 115°
2026-04-25 08:30 19.93388 68.54988 36890 ft 489 kts 115°
2026-04-25 08:31 19.90315 68.61449 36886 ft 490 kts 115°
2026-04-25 08:31 19.87240 68.67910 36883 ft 490 kts 115°
2026-04-25 08:32 19.84182 68.74327 36883 ft 490 kts 115°
2026-04-25 08:32 19.81099 68.80788 36874 ft 490 kts 116°
2026-04-25 08:33 19.78021 68.87232 36885 ft 490 kts 116°
2026-04-25 08:33 19.74937 68.93682 36886 ft 490 kts 116°
2026-04-25 08:34 19.71848 69.00134 36883 ft 490 kts 116°
2026-04-25 08:34 19.68752 69.06594 36886 ft 491 kts 116°
2026-04-25 08:35 19.65656 69.13048 36887 ft 491 kts 116°
2026-04-25 08:35 19.62552 69.19510 36882 ft 491 kts 116°
2026-04-25 08:36 19.59450 69.25962 36875 ft 491 kts 116°
2026-04-25 08:36 19.56349 69.32404 36875 ft 491 kts 117°
2026-04-25 08:37 19.53291 69.38838 36885 ft 491 kts 116°
2026-04-25 08:37 19.50313 69.45362 36877 ft 492 kts 115°
2026-04-25 08:38 19.47338 69.51914 36877 ft 493 kts 115°
2026-04-25 08:38 19.44348 69.58460 36880 ft 494 kts 116°
2026-04-25 08:39 19.41335 69.65023 36872 ft 494 kts 116°
2026-04-25 08:39 19.38319 69.71578 36873 ft 494 kts 116°
2026-04-25 08:40 19.35325 69.78079 36867 ft 494 kts 116°
2026-04-25 08:40 19.32306 69.84629 36869 ft 494 kts 116°
2026-04-25 08:41 19.29289 69.91167 36864 ft 494 kts 116°
2026-04-25 08:41 19.26267 69.97710 36863 ft 495 kts 116°
2026-04-25 08:42 19.23242 70.04250 36860 ft 495 kts 116°
2026-04-25 08:42 19.20213 70.10790 36869 ft 495 kts 116°
2026-04-25 08:43 19.17176 70.17344 36858 ft 496 kts 117°
2026-04-25 08:43 19.14140 70.23885 36868 ft 496 kts 117°
2026-04-25 08:44 19.11101 70.30428 36854 ft 496 kts 117°
2026-04-25 08:44 19.08059 70.36968 36855 ft 496 kts 117°
2026-04-25 08:45 19.05009 70.43518 36854 ft 496 kts 117°
2026-04-25 08:45 19.01987 70.50001 36852 ft 496 kts 117°
2026-04-25 08:46 18.98935 70.56540 36847 ft 496 kts 117°
2026-04-25 08:46 18.95882 70.63076 36856 ft 496 kts 117°
2026-04-25 08:47 18.92827 70.69606 36853 ft 496 kts 117°
2026-04-25 08:47 18.89760 70.76156 36855 ft 497 kts 117°
2026-04-25 08:48 18.86691 70.82705 36849 ft 497 kts 117°
2026-04-25 08:48 18.83640 70.89205 36843 ft 497 kts 118°
2026-04-25 08:49 18.80567 70.95747 36845 ft 498 kts 118°
2026-04-25 08:49 18.77480 71.02312 36839 ft 499 kts 119°
2026-04-25 08:50 18.74391 71.08871 36844 ft 499 kts 119°
2026-04-25 08:50 18.71298 71.15433 36839 ft 500 kts 119°
2026-04-25 08:51 18.68194 71.22012 36835 ft 500 kts 119°
2026-04-25 08:51 18.65614 71.27474 36840 ft 500 kts 119°
2026-04-25 08:52 18.62000 71.35115 36834 ft 501 kts 119°
2026-04-25 08:52 18.59393 71.40622 36832 ft 500 kts 119°
2026-04-25 08:53 18.56305 71.47139 36831 ft 500 kts 119°
2026-04-25 08:53 18.53197 71.53691 36830 ft 500 kts 119°
2026-04-25 08:54 18.50086 71.60244 36823 ft 499 kts 120°
2026-04-25 08:54 18.47192 71.66331 36828 ft 499 kts 120°
2026-04-25 08:55 18.44081 71.72867 36827 ft 499 kts 120°
2026-04-25 08:55 18.40964 71.79409 36824 ft 499 kts 120°
2026-04-25 08:56 18.37989 71.85647 36817 ft 499 kts 120°
2026-04-25 08:56 18.34870 71.92180 36810 ft 500 kts 121°
2026-04-25 08:57 18.31765 71.98677 36818 ft 500 kts 121°
2026-04-25 08:57 18.28639 72.05210 36816 ft 500 kts 121°
2026-04-25 08:58 18.25507 72.11749 36797 ft 500 kts 121°
2026-04-25 08:58 18.22374 72.18283 36810 ft 500 kts 121°
2026-04-25 08:59 18.19235 72.24822 36811 ft 501 kts 121°
2026-04-25 08:59 18.16086 72.31375 36806 ft 502 kts 122°
2026-04-25 09:00 18.12937 72.37922 36809 ft 502 kts 122°
2026-04-25 09:00 18.09782 72.44474 36806 ft 503 kts 122°
2026-04-25 09:01 18.06640 72.50992 36806 ft 503 kts 122°
2026-04-25 09:01 18.03473 72.57555 36799 ft 503 kts 122°
2026-04-25 09:02 18.00307 72.64111 36797 ft 503 kts 122°
2026-04-25 09:02 17.97131 72.70679 36798 ft 504 kts 122°
2026-04-25 09:03 17.93955 72.77239 36797 ft 504 kts 122°
2026-04-25 09:03 17.90779 72.83793 36794 ft 504 kts 122°
2026-04-25 09:04 17.87596 72.90356 36795 ft 504 kts 122°
2026-04-25 09:04 17.84416 72.96904 36779 ft 504 kts 123°
2026-04-25 09:05 17.81233 73.03453 36789 ft 504 kts 123°
2026-04-25 09:05 17.78045 73.10006 36799 ft 504 kts 123°
2026-04-25 09:06 17.74856 73.16555 36805 ft 504 kts 123°
2026-04-25 09:06 17.71661 73.23106 36803 ft 504 kts 123°
2026-04-25 09:07 17.68454 73.29661 36814 ft 504 kts 123°
2026-04-25 09:07 17.65258 73.36184 36807 ft 503 kts 123°
2026-04-25 09:08 17.62068 73.42690 36838 ft 501 kts 123°
2026-04-25 09:08 17.58901 73.49144 36827 ft 500 kts 123°
2026-04-25 09:09 17.55722 73.55617 36854 ft 499 kts 123°
2026-04-25 09:09 17.52542 73.62086 36857 ft 498 kts 123°
2026-04-25 09:10 17.49363 73.68543 36875 ft 499 kts 124°
2026-04-25 09:10 17.46179 73.75006 36874 ft 498 kts 124°
2026-04-25 09:11 17.41414 73.84668 36876 ft 499 kts 124°
2026-04-25 09:11 17.38246 73.91081 36889 ft 499 kts 124°
2026-04-25 09:12 17.35055 73.97536 36912 ft 500 kts 124°
2026-04-25 09:12 17.31855 74.04004 36896 ft 500 kts 124°
2026-04-25 09:13 17.28650 74.10475 36919 ft 500 kts 124°
2026-04-25 09:13 17.25450 74.16931 36917 ft 500 kts 124°
2026-04-25 09:14 17.22271 74.23339 36921 ft 499 kts 124°
2026-04-25 09:14 17.19073 74.29779 36925 ft 499 kts 124°
2026-04-25 09:15 17.15876 74.36227 36912 ft 499 kts 124°
2026-04-25 09:15 17.12680 74.42673 36904 ft 499 kts 124°
2026-04-25 09:16 17.09488 74.49104 36914 ft 498 kts 124°
2026-04-25 09:16 17.06293 74.55533 36921 ft 497 kts 124°
2026-04-25 09:17 17.01510 74.65143 36923 ft 496 kts 124°
2026-04-25 09:18 16.98343 74.71500 36923 ft 496 kts 124°
2026-04-25 09:18 16.95157 74.77888 36919 ft 496 kts 124°
2026-04-25 09:19 16.91971 74.84269 36934 ft 495 kts 124°
2026-04-25 09:19 16.88782 74.90652 36927 ft 495 kts 124°
2026-04-25 09:20 16.85592 74.97029 36919 ft 496 kts 124°
2026-04-25 09:20 16.82397 75.03411 36927 ft 496 kts 124°
2026-04-25 09:21 16.79200 75.09792 36915 ft 496 kts 124°
2026-04-25 09:21 16.75998 75.16176 36925 ft 496 kts 124°
2026-04-25 09:22 16.72794 75.22558 36925 ft 497 kts 124°
2026-04-25 09:22 16.69590 75.28934 36927 ft 497 kts 124°
2026-04-25 09:23 16.66376 75.35324 36924 ft 497 kts 124°
2026-04-25 09:23 16.63180 75.41674 36913 ft 497 kts 124°
2026-04-25 09:24 16.59971 75.48065 36906 ft 498 kts 123°
2026-04-25 09:24 16.56927 75.54569 36903 ft 499 kts 122°
2026-04-25 09:25 16.53945 75.61109 36898 ft 499 kts 122°
2026-04-25 09:25 16.50941 75.67625 36909 ft 498 kts 122°
2026-04-25 09:26 16.47919 75.74122 36903 ft 498 kts 122°
2026-04-25 09:26 16.44894 75.80613 36904 ft 498 kts 122°
2026-04-25 09:27 16.41872 75.87097 36903 ft 497 kts 122°
2026-04-25 09:27 16.38852 75.93574 36901 ft 497 kts 122°
2026-04-25 09:28 16.35830 76.00047 36903 ft 497 kts 122°
2026-04-25 09:28 16.32809 76.06478 36900 ft 497 kts 122°
2026-04-25 09:29 16.29763 76.12936 36893 ft 497 kts 122°
2026-04-25 09:29 16.26718 76.19391 36888 ft 497 kts 122°
2026-04-25 09:30 16.23672 76.25847 36875 ft 497 kts 122°
2026-04-25 09:30 16.20626 76.32299 36885 ft 496 kts 122°
2026-04-25 09:31 16.17581 76.38743 36881 ft 495 kts 122°
2026-04-25 09:31 16.14542 76.45168 36873 ft 494 kts 122°
2026-04-25 09:32 16.11502 76.51588 36878 ft 494 kts 122°
2026-04-25 09:32 16.08466 76.57993 36874 ft 494 kts 122°
2026-04-25 09:33 16.05446 76.64357 36873 ft 494 kts 122°
2026-04-25 09:33 16.02402 76.70768 36870 ft 495 kts 122°
2026-04-25 09:34 15.99349 76.77190 36867 ft 495 kts 122°
2026-04-25 09:34 15.96295 76.83612 36865 ft 496 kts 122°
2026-04-25 09:35 15.93234 76.90038 36845 ft 497 kts 121°
2026-04-25 09:35 15.90166 76.96477 36857 ft 497 kts 121°
2026-04-25 09:36 15.87092 77.02921 36853 ft 499 kts 121°
2026-04-25 09:36 15.84008 77.09382 36855 ft 499 kts 121°
2026-04-25 09:37 15.80918 77.15847 36850 ft 500 kts 121°
2026-04-25 09:37 15.77827 77.22312 36845 ft 500 kts 121°
2026-04-25 09:38 15.75252 77.27691 36841 ft 500 kts 121°
2026-04-25 09:38 15.71650 77.35210 36847 ft 500 kts 121°
2026-04-25 09:39 15.69060 77.40632 36841 ft 501 kts 121°
2026-04-25 09:39 15.65473 77.48159 36842 ft 501 kts 121°
2026-04-25 09:40 15.61342 77.56820 36837 ft 500 kts 121°
2026-04-25 09:40 15.58256 77.63280 36841 ft 500 kts 121°
2026-04-25 09:41 15.55165 77.69743 36846 ft 500 kts 121°
2026-04-25 09:41 15.52073 77.76201 36846 ft 500 kts 121°
2026-04-25 09:42 15.48982 77.82653 36847 ft 499 kts 121°
2026-04-25 09:42 15.45893 77.89094 36847 ft 499 kts 121°
2026-04-25 09:43 15.42797 77.95545 36852 ft 499 kts 121°
2026-04-25 09:43 15.39705 78.01982 36847 ft 500 kts 121°
2026-04-25 09:44 15.36755 78.08119 36849 ft 500 kts 121°
2026-04-25 09:44 15.33634 78.14568 36835 ft 501 kts 121°
2026-04-25 09:45 15.30482 78.21007 36827 ft 501 kts 121°
2026-04-25 09:45 15.27324 78.27448 36812 ft 501 kts 121°
2026-04-25 09:46 15.24169 78.33891 36812 ft 501 kts 121°
2026-04-25 09:46 15.21016 78.40331 36810 ft 501 kts 121°
2026-04-25 09:47 15.17858 78.46777 36802 ft 501 kts 121°
2026-04-25 09:47 15.14703 78.53208 36801 ft 501 kts 121°
2026-04-25 09:48 15.11551 78.59627 36805 ft 500 kts 121°
2026-04-25 09:48 15.08394 78.66051 36808 ft 500 kts 122°
2026-04-25 09:49 15.05260 78.72425 36796 ft 500 kts 121°
2026-04-25 09:49 15.02100 78.78844 36799 ft 500 kts 121°
2026-04-25 09:50 14.98943 78.85252 36803 ft 500 kts 121°
2026-04-25 09:50 14.95784 78.91658 36801 ft 500 kts 121°
2026-04-25 09:51 14.92628 78.98053 36797 ft 499 kts 121°
2026-04-25 09:51 14.89466 79.04453 36800 ft 500 kts 121°
2026-04-25 09:52 14.86304 79.10848 36787 ft 500 kts 121°
2026-04-25 09:52 14.83134 79.17254 36788 ft 501 kts 121°
2026-04-25 09:53 14.79958 79.23667 36788 ft 501 kts 121°
2026-04-25 09:53 14.76781 79.30079 36784 ft 501 kts 121°
2026-04-25 09:54 14.73599 79.36492 36785 ft 501 kts 121°
2026-04-25 09:54 14.70421 79.42895 36783 ft 501 kts 121°
2026-04-25 09:55 14.67254 79.49268 36793 ft 501 kts 121°
2026-04-25 09:55 14.64256 79.55296 36795 ft 500 kts 121°
2026-04-25 09:56 14.61075 79.61688 36773 ft 499 kts 121°
2026-04-25 09:56 14.57904 79.68054 36771 ft 499 kts 121°
2026-04-25 09:57 14.54745 79.74390 36794 ft 499 kts 121°
2026-04-25 09:57 14.51551 79.80791 36786 ft 499 kts 121°
2026-04-25 09:58 14.48394 79.87113 36801 ft 499 kts 121°
2026-04-25 09:58 14.45216 79.93471 36802 ft 499 kts 121°
2026-04-25 09:59 14.42031 79.99839 36801 ft 499 kts 121°
2026-04-25 09:59 14.38844 80.06206 36813 ft 499 kts 121°
2026-04-25 10:00 14.35658 80.12565 36813 ft 499 kts 121°
2026-04-25 10:00 14.32467 80.18929 36819 ft 499 kts 121°
2026-04-25 10:01 14.29276 80.25289 36823 ft 499 kts 121°
2026-04-25 10:01 14.26085 80.31641 36826 ft 499 kts 121°
2026-04-25 10:02 14.22894 80.37991 36825 ft 498 kts 121°
2026-04-25 10:02 14.19707 80.44326 36824 ft 498 kts 121°
2026-04-25 10:03 14.16515 80.50667 36829 ft 498 kts 121°
2026-04-25 10:03 14.13328 80.56992 36824 ft 498 kts 121°
2026-04-25 10:04 14.10158 80.63279 36829 ft 497 kts 121°
2026-04-25 10:04 14.06962 80.69612 36826 ft 497 kts 121°
2026-04-25 10:05 14.03772 80.75931 36822 ft 497 kts 121°
2026-04-25 10:05 14.00580 80.82249 36827 ft 497 kts 121°
2026-04-25 10:06 13.97438 80.88592 36827 ft 497 kts 120°
2026-04-25 10:06 13.94364 80.94964 36823 ft 497 kts 120°
2026-04-25 10:07 13.91285 81.01336 36829 ft 496 kts 120°
2026-04-25 10:07 13.88197 81.07691 36830 ft 496 kts 120°
2026-04-25 10:08 13.85103 81.14043 36832 ft 496 kts 120°
2026-04-25 10:08 13.82008 81.20395 36833 ft 496 kts 120°
2026-04-25 10:09 13.78915 81.26738 36836 ft 496 kts 120°
2026-04-25 10:09 13.75818 81.33085 36833 ft 496 kts 120°
2026-04-25 10:10 13.72716 81.39439 36839 ft 496 kts 120°
2026-04-25 10:10 13.69616 81.45783 36835 ft 496 kts 120°
2026-04-25 10:11 13.66516 81.52128 36838 ft 496 kts 120°
2026-04-25 10:11 13.63441 81.58428 36837 ft 496 kts 120°
2026-04-25 10:12 13.60343 81.64770 36838 ft 496 kts 120°
2026-04-25 10:13 13.55701 81.74261 36841 ft 495 kts 120°
2026-04-25 10:13 13.52601 81.80594 36840 ft 495 kts 120°
2026-04-25 10:14 13.49508 81.86908 36841 ft 495 kts 120°
2026-04-25 10:14 13.46410 81.93226 36840 ft 495 kts 120°
2026-04-25 10:15 13.43312 81.99539 36845 ft 495 kts 120°
2026-04-25 10:15 13.40212 82.05853 36844 ft 495 kts 120°
2026-04-25 10:16 13.37109 82.12166 36841 ft 495 kts 120°
2026-04-25 10:16 13.34006 82.18477 36844 ft 494 kts 120°
2026-04-25 10:17 13.30901 82.24786 36843 ft 494 kts 120°
2026-04-25 10:17 13.27820 82.31041 36843 ft 494 kts 120°
2026-04-25 10:18 13.24730 82.37310 36843 ft 493 kts 120°
2026-04-25 10:18 13.21624 82.43608 36847 ft 493 kts 120°
2026-04-25 10:19 13.18528 82.49878 36846 ft 492 kts 120°
2026-04-25 10:19 13.15427 82.56155 36846 ft 492 kts 120°
2026-04-25 10:20 13.12336 82.62408 36846 ft 491 kts 120°
2026-04-25 10:20 13.09243 82.68661 36846 ft 491 kts 120°
2026-04-25 10:21 13.06162 82.74883 36849 ft 491 kts 120°
2026-04-25 10:21 13.03065 82.81133 36845 ft 491 kts 120°
2026-04-25 10:22 12.99971 82.87372 36851 ft 491 kts 120°
2026-04-25 10:22 12.97397 82.92562 36851 ft 490 kts 120°
2026-04-25 10:23 12.94306 82.98788 36851 ft 490 kts 120°
2026-04-25 10:23 12.91216 83.05006 36856 ft 490 kts 120°
2026-04-25 10:24 12.88123 83.11226 36850 ft 489 kts 120°
2026-04-25 10:24 12.85033 83.17437 36848 ft 489 kts 120°
2026-04-25 10:25 12.81938 83.23654 36853 ft 489 kts 120°
2026-04-25 10:25 12.78862 83.29827 36855 ft 489 kts 120°
2026-04-25 10:26 12.75767 83.36034 36850 ft 489 kts 120°
2026-04-25 10:26 12.72666 83.42249 36852 ft 489 kts 120°
2026-04-25 10:27 12.69568 83.48455 36849 ft 489 kts 120°
2026-04-25 10:27 12.66469 83.54659 36857 ft 489 kts 120°
2026-04-25 10:28 12.63421 83.60874 36849 ft 489 kts 118°
2026-04-25 10:28 12.60435 83.67119 36853 ft 488 kts 118°
2026-04-25 10:29 12.57454 83.73356 36848 ft 487 kts 118°
2026-04-25 10:29 12.54467 83.79575 36853 ft 486 kts 118°
2026-04-25 10:30 12.51625 83.85478 36847 ft 486 kts 118°
2026-04-25 10:30 12.48633 83.91682 36851 ft 486 kts 118°
2026-04-25 10:31 12.45659 83.97845 36853 ft 486 kts 118°
2026-04-25 10:31 12.42668 84.04042 36854 ft 486 kts 118°
2026-04-25 10:32 12.39675 84.10239 36848 ft 486 kts 118°
2026-04-25 10:32 12.36677 84.16442 36850 ft 486 kts 118°
2026-04-25 10:33 12.33680 84.22637 36854 ft 485 kts 118°
2026-04-25 10:33 12.30686 84.28822 36847 ft 485 kts 118°
2026-04-25 10:34 12.27694 84.35001 36854 ft 485 kts 118°
2026-04-25 10:34 12.24696 84.41185 36849 ft 484 kts 118°
2026-04-25 10:35 12.21707 84.47348 36851 ft 484 kts 118°
2026-04-25 10:35 12.18715 84.53513 36853 ft 484 kts 118°
2026-04-25 10:36 12.15912 84.59284 36852 ft 484 kts 118°
2026-04-25 10:36 12.12937 84.65405 36852 ft 484 kts 118°
2026-04-25 10:37 12.09939 84.71568 36849 ft 484 kts 118°
2026-04-25 10:37 12.06942 84.77728 36850 ft 484 kts 118°
2026-04-25 10:38 12.03937 84.83897 36852 ft 484 kts 118°
2026-04-25 10:38 12.00938 84.90051 36853 ft 484 kts 118°
2026-04-25 10:39 11.97932 84.96215 36853 ft 484 kts 118°
2026-04-25 10:39 11.94927 85.02375 36851 ft 484 kts 118°
2026-04-25 10:40 11.91925 85.08522 36854 ft 483 kts 118°
2026-04-25 10:40 11.88929 85.14654 36853 ft 483 kts 118°
2026-04-25 10:41 11.85929 85.20790 36854 ft 482 kts 118°
2026-04-25 10:41 11.82935 85.26908 36852 ft 481 kts 118°
2026-04-25 10:42 11.79965 85.32974 36854 ft 481 kts 118°
2026-04-25 10:42 11.76971 85.39086 36855 ft 481 kts 118°
2026-04-25 10:43 11.73979 85.45189 36857 ft 481 kts 118°
2026-04-25 10:43 11.70981 85.51301 36854 ft 480 kts 118°
2026-04-25 10:44 11.68010 85.57354 36855 ft 480 kts 118°
2026-04-25 10:44 11.65019 85.63442 36855 ft 480 kts 118°
2026-04-25 10:45 11.62028 85.69528 36854 ft 480 kts 118°
2026-04-25 10:45 11.59037 85.75609 36855 ft 479 kts 118°
2026-04-25 10:46 11.56047 85.81685 36855 ft 479 kts 118°
2026-04-25 10:46 11.53051 85.87769 36855 ft 479 kts 118°
2026-04-25 10:47 11.50055 85.93848 36856 ft 480 kts 118°
2026-04-25 10:47 11.47058 85.99928 36855 ft 480 kts 118°
2026-04-25 10:48 11.44078 86.05967 36854 ft 480 kts 118°
2026-04-25 10:48 11.41075 86.12051 36855 ft 480 kts 118°
2026-04-25 10:49 11.38075 86.18122 36858 ft 480 kts 118°
2026-04-25 10:49 11.35070 86.24201 36851 ft 480 kts 118°
2026-04-25 10:50 11.32063 86.30280 36857 ft 481 kts 118°
2026-04-25 10:50 11.29048 86.36374 36857 ft 481 kts 118°
2026-04-25 10:51 11.26032 86.42464 36855 ft 482 kts 118°
2026-04-25 10:51 11.23016 86.48551 36854 ft 481 kts 118°
2026-04-25 10:52 11.19994 86.54644 36857 ft 481 kts 118°
2026-04-25 10:52 11.16981 86.60716 36856 ft 481 kts 118°
2026-04-25 10:53 11.13962 86.66797 36855 ft 481 kts 118°
2026-04-25 10:53 11.10944 86.72874 36858 ft 480 kts 118°
2026-04-25 10:54 11.07942 86.78914 36857 ft 480 kts 118°
2026-04-25 10:54 11.04929 86.84971 36863 ft 481 kts 118°
2026-04-25 10:55 11.01901 86.91055 36863 ft 481 kts 118°
2026-04-25 10:55 10.98880 86.97122 36861 ft 481 kts 118°
2026-04-25 10:56 10.95856 87.03191 36861 ft 481 kts 118°
2026-04-25 10:56 10.92829 87.09263 36860 ft 481 kts 118°
2026-04-25 10:57 10.89807 87.15320 36863 ft 480 kts 118°
2026-04-25 10:57 10.86784 87.21377 36862 ft 480 kts 118°
2026-04-25 10:58 10.83764 87.27423 36862 ft 479 kts 118°
2026-04-25 10:58 10.80745 87.33464 36862 ft 479 kts 118°
2026-04-25 10:59 10.77727 87.39499 36863 ft 478 kts 118°
2026-04-25 10:59 10.74712 87.45526 36862 ft 478 kts 118°
2026-04-25 11:00 10.71710 87.51521 36863 ft 478 kts 118°
2026-04-25 11:00 10.68690 87.57551 36866 ft 478 kts 118°
2026-04-25 11:01 10.65673 87.63571 36866 ft 478 kts 118°
2026-04-25 11:01 10.62649 87.69599 36862 ft 478 kts 118°
2026-04-25 11:02 10.59628 87.75620 36864 ft 478 kts 118°
2026-04-25 11:02 10.56604 87.81643 36862 ft 478 kts 118°
2026-04-25 11:03 10.53600 87.87623 36867 ft 477 kts 117°
2026-04-25 11:03 10.50582 87.93627 36859 ft 476 kts 117°
2026-04-25 11:04 10.47575 87.99606 36860 ft 475 kts 117°
2026-04-25 11:04 10.44564 88.05590 36863 ft 475 kts 117°
2026-04-25 11:05 10.41556 88.11564 36861 ft 474 kts 117°
2026-04-25 11:05 10.38556 88.17518 36866 ft 474 kts 117°
2026-04-25 11:06 10.35544 88.23495 36860 ft 475 kts 117°
2026-04-25 11:06 10.32531 88.29469 36866 ft 475 kts 117°
2026-04-25 11:07 10.29537 88.35401 36859 ft 475 kts 117°
2026-04-25 11:07 10.26521 88.41378 36861 ft 475 kts 117°
2026-04-25 11:08 10.23498 88.47362 36851 ft 476 kts 117°
2026-04-25 11:08 10.20968 88.52369 36865 ft 475 kts 117°
2026-04-25 11:09 10.18073 88.58388 36852 ft 475 kts 114°
2026-04-25 11:09 10.15324 88.64481 36860 ft 473 kts 114°
2026-04-25 11:10 10.12587 88.70546 36857 ft 473 kts 114°
2026-04-25 11:10 10.09841 88.76564 36859 ft 472 kts 114°
2026-04-25 11:11 10.07071 88.82602 36861 ft 472 kts 114°
2026-04-25 11:11 10.04294 88.88644 36852 ft 472 kts 114°
2026-04-25 11:12 10.01515 88.94688 36865 ft 473 kts 114°
2026-04-25 11:12 9.98734 89.00735 36855 ft 473 kts 114°
2026-04-25 11:13 9.95952 89.06784 36864 ft 473 kts 114°
2026-04-25 11:13 9.93164 89.12839 36858 ft 474 kts 114°
2026-04-25 11:14 9.90375 89.18894 36864 ft 474 kts 114°
2026-04-25 11:14 9.87583 89.24954 36859 ft 474 kts 114°
2026-04-25 11:15 9.84791 89.31008 36854 ft 474 kts 114°
2026-04-25 11:15 9.82001 89.37056 36861 ft 474 kts 114°
2026-04-25 11:16 9.77809 89.46136 36861 ft 474 kts 114°
2026-04-25 11:16 9.75010 89.52195 36861 ft 474 kts 114°
2026-04-25 11:17 9.72211 89.58250 36859 ft 475 kts 114°
2026-04-25 11:17 9.69424 89.64278 36857 ft 475 kts 114°
2026-04-25 11:18 9.66619 89.70337 36862 ft 475 kts 114°
2026-04-25 11:18 9.63810 89.76405 36859 ft 475 kts 114°
2026-04-25 11:19 9.61386 89.81638 36916 ft 475 kts 114°
2026-04-25 11:19 9.59977 89.84678 37061 ft 475 kts 114°
2026-04-25 11:19 9.58572 89.87709 37173 ft 476 kts 114°
2026-04-25 11:20 9.57161 89.90754 37307 ft 477 kts 114°
2026-04-25 11:20 9.55747 89.93801 37435 ft 477 kts 114°
2026-04-25 11:20 9.54341 89.96833 37548 ft 477 kts 114°
2026-04-25 11:20 9.52925 89.99885 37689 ft 477 kts 114°
2026-04-25 11:21 9.51515 90.02921 37816 ft 477 kts 114°
2026-04-25 11:21 9.50126 90.05915 37946 ft 476 kts 114°
2026-04-25 11:21 9.48715 90.08953 38071 ft 476 kts 114°
2026-04-25 11:21 9.47308 90.11980 38201 ft 475 kts 114°
2026-04-25 11:22 9.45900 90.15012 38329 ft 475 kts 114°
2026-04-25 11:22 9.44951 90.17054 38414 ft 475 kts 114°
2026-04-25 11:22 9.43087 90.21062 38586 ft 474 kts 114°
2026-04-25 11:22 9.41682 90.24084 38685 ft 474 kts 114°
2026-04-25 11:23 9.38872 90.30124 38822 ft 474 kts 114°
2026-04-25 11:23 9.36068 90.36150 38847 ft 473 kts 114°
2026-04-25 11:24 9.33267 90.42163 38864 ft 472 kts 114°
2026-04-25 11:24 9.30465 90.48177 38861 ft 472 kts 114°
2026-04-25 11:25 9.27670 90.54173 38859 ft 471 kts 114°
2026-04-25 11:25 9.24871 90.60175 38860 ft 471 kts 114°
2026-04-25 11:26 9.22072 90.66172 38861 ft 471 kts 114°
2026-04-25 11:26 9.19298 90.72113 38861 ft 470 kts 114°
2026-04-25 11:27 9.16497 90.78110 38862 ft 470 kts 114°
2026-04-25 11:27 9.14155 90.83120 38860 ft 470 kts 114°
2026-04-25 11:28 9.10898 90.90086 38860 ft 470 kts 114°
2026-04-25 11:28 9.08102 90.96062 38857 ft 471 kts 114°
2026-04-25 11:29 9.05298 91.02052 38858 ft 471 kts 114°
2026-04-25 11:29 9.02495 91.08038 38857 ft 471 kts 114°
2026-04-25 11:30 8.99688 91.14030 38859 ft 471 kts 114°
2026-04-25 11:30 8.96882 91.20015 38860 ft 471 kts 115°
2026-04-25 11:31 8.94085 91.25978 38860 ft 472 kts 115°
2026-04-25 11:31 8.91272 91.31974 38857 ft 472 kts 115°
2026-04-25 11:32 8.88439 91.38007 38861 ft 472 kts 115°
2026-04-25 11:32 8.85643 91.43961 38861 ft 472 kts 115°
2026-04-25 11:33 8.82828 91.49951 38860 ft 472 kts 115°
2026-04-25 11:33 8.80009 91.55947 38858 ft 472 kts 115°
2026-04-25 11:34 8.77193 91.61934 38861 ft 471 kts 115°
2026-04-25 11:34 8.74374 91.67923 38859 ft 471 kts 115°
2026-04-25 11:35 8.71557 91.73906 38857 ft 471 kts 115°
2026-04-25 11:35 8.68738 91.79891 38857 ft 471 kts 115°
2026-04-25 11:36 8.65923 91.85866 38862 ft 471 kts 115°
2026-04-25 11:36 8.63103 91.91847 38863 ft 471 kts 115°
2026-04-25 11:37 8.60286 91.97820 38862 ft 471 kts 115°
2026-04-25 11:37 8.57519 92.03818 38862 ft 471 kts 114°
2026-04-25 11:38 8.54861 92.09856 38864 ft 471 kts 113°
2026-04-25 11:38 8.52224 92.15868 38860 ft 471 kts 114°
2026-04-25 11:39 8.49555 92.21912 38861 ft 471 kts 114°
2026-04-25 11:39 8.46876 92.27951 38864 ft 471 kts 114°
2026-04-25 11:40 8.44196 92.33989 38861 ft 471 kts 114°
2026-04-25 11:40 8.41516 92.40022 38861 ft 471 kts 114°
2026-04-25 11:41 8.38832 92.46063 38864 ft 471 kts 114°
2026-04-25 11:41 8.36147 92.52106 38866 ft 471 kts 114°
2026-04-25 11:42 8.33462 92.58143 38865 ft 471 kts 114°
2026-04-25 11:42 8.30798 92.64131 38867 ft 470 kts 114°
2026-04-25 11:43 8.28099 92.70197 38868 ft 470 kts 114°
2026-04-25 11:43 8.25434 92.76181 38866 ft 470 kts 114°
2026-04-25 11:44 8.22754 92.82197 38864 ft 469 kts 114°
2026-04-25 11:44 8.20075 92.88207 38866 ft 469 kts 114°
2026-04-25 11:45 8.17395 92.94217 38863 ft 469 kts 114°
2026-04-25 11:45 8.14719 93.00216 38863 ft 469 kts 114°
2026-04-25 11:46 8.12041 93.06216 38863 ft 469 kts 114°
2026-04-25 11:46 8.09509 93.11887 38863 ft 468 kts 114°
2026-04-25 11:47 8.06833 93.17877 38863 ft 468 kts 114°
2026-04-25 11:47 8.04154 93.23873 38867 ft 468 kts 114°
2026-04-25 11:48 8.01475 93.29864 38866 ft 468 kts 114°
2026-04-25 11:48 7.98795 93.35857 38865 ft 469 kts 114°
2026-04-25 11:49 7.96112 93.41853 38867 ft 469 kts 114°
2026-04-25 11:49 7.93429 93.47846 38865 ft 469 kts 114°
2026-04-25 11:50 7.90751 93.53847 38870 ft 469 kts 114°
2026-04-25 11:50 7.88104 93.59822 38869 ft 469 kts 114°
2026-04-25 11:51 7.85428 93.65865 38868 ft 469 kts 114°
2026-04-25 11:51 7.82779 93.71839 38870 ft 469 kts 114°
2026-04-25 11:52 7.80115 93.77840 38869 ft 469 kts 114°
2026-04-25 11:52 7.77434 93.83878 38867 ft 469 kts 114°
2026-04-25 11:53 7.74784 93.89843 38869 ft 469 kts 114°
2026-04-25 11:53 7.72116 93.95844 38868 ft 469 kts 114°
2026-04-25 11:54 7.69451 94.01838 38868 ft 469 kts 114°
2026-04-25 11:55 7.65461 94.10808 38867 ft 469 kts 114°
2026-04-25 11:55 7.63243 94.15790 38867 ft 469 kts 114°
2026-04-25 11:56 7.60573 94.21788 38868 ft 469 kts 115°
2026-04-25 11:56 7.57890 94.27809 38871 ft 469 kts 115°
2026-04-25 11:57 7.55222 94.33797 38869 ft 469 kts 114°
2026-04-25 11:57 7.52547 94.39798 38870 ft 470 kts 114°
2026-04-25 11:58 7.49795 94.45784 38865 ft 470 kts 116°
2026-04-25 11:58 7.46892 94.51699 38868 ft 470 kts 117°
2026-04-25 11:59 7.43980 94.57606 38867 ft 470 kts 116°
2026-04-25 11:59 7.41087 94.63524 38865 ft 471 kts 116°
2026-04-25 12:00 7.36756 94.72428 38874 ft 472 kts 116°
2026-04-25 12:01 7.32438 94.81302 38874 ft 472 kts 116°
2026-04-25 12:01 7.29539 94.87254 38870 ft 473 kts 116°
2026-04-25 12:02 7.25196 94.96167 38873 ft 473 kts 116°
2026-04-25 12:02 7.22299 95.02112 38875 ft 472 kts 116°
2026-04-25 12:03 7.19412 95.08031 38870 ft 471 kts 116°
2026-04-25 12:03 7.16522 95.13955 38876 ft 470 kts 116°
2026-04-25 12:04 7.13658 95.19824 38873 ft 469 kts 116°
2026-04-25 12:04 7.10780 95.25716 38878 ft 469 kts 116°
2026-04-25 12:05 7.07904 95.31605 38876 ft 468 kts 116°
2026-04-25 12:05 7.05030 95.37487 38878 ft 468 kts 116°
2026-04-25 12:06 7.02157 95.43365 38878 ft 467 kts 116°
2026-04-25 12:06 6.99289 95.49231 38881 ft 467 kts 116°
2026-04-25 12:07 6.96416 95.55104 38878 ft 467 kts 116°
2026-04-25 12:07 6.93548 95.60964 38879 ft 467 kts 116°
2026-04-25 12:08 6.90672 95.66839 38878 ft 467 kts 116°
2026-04-25 12:08 6.87794 95.72716 38877 ft 468 kts 116°
2026-04-25 12:09 6.84934 95.78555 38876 ft 468 kts 116°
2026-04-25 12:09 6.82060 95.84420 38875 ft 468 kts 116°
2026-04-25 12:10 6.79180 95.90295 38882 ft 468 kts 116°
2026-04-25 12:10 6.76302 95.96166 38880 ft 468 kts 116°
2026-04-25 12:11 6.73427 96.02035 38880 ft 467 kts 116°
2026-04-25 12:11 6.70559 96.07904 38881 ft 467 kts 116°
2026-04-25 12:12 6.68173 96.12787 38878 ft 467 kts 116°
2026-04-25 12:12 6.64821 96.19641 38881 ft 467 kts 116°
2026-04-25 12:13 6.61954 96.25500 38878 ft 467 kts 116°
2026-04-25 12:13 6.59084 96.31365 38879 ft 467 kts 116°
2026-04-25 12:14 6.56218 96.37218 38883 ft 466 kts 116°
2026-04-25 12:14 6.53357 96.43063 38882 ft 466 kts 116°
2026-04-25 12:15 6.50551 96.48949 38877 ft 466 kts 112°
2026-04-25 12:15 6.48545 96.55134 38884 ft 466 kts 106°
2026-04-25 12:16 6.46754 96.61418 38878 ft 467 kts 106°
2026-04-25 12:16 6.44943 96.67698 38881 ft 468 kts 107°
2026-04-25 12:17 6.43120 96.73936 38882 ft 468 kts 107°
2026-04-25 12:17 6.41275 96.80221 38883 ft 468 kts 107°
2026-04-25 12:18 6.39431 96.86496 38874 ft 468 kts 107°
2026-04-25 12:18 6.37585 96.92779 38882 ft 468 kts 107°
2026-04-25 12:19 6.34813 97.02209 38882 ft 469 kts 107°
2026-04-25 12:20 6.32963 97.08502 38880 ft 469 kts 107°
2026-04-25 12:20 6.31112 97.14793 38882 ft 469 kts 107°
2026-04-25 12:21 6.29259 97.21088 38880 ft 470 kts 107°
2026-04-25 12:21 6.27404 97.27386 38880 ft 470 kts 107°
2026-04-25 12:22 6.25546 97.33691 38878 ft 470 kts 107°
2026-04-25 12:22 6.23691 97.39987 38884 ft 470 kts 107°
2026-04-25 12:23 6.21835 97.46281 38882 ft 469 kts 107°
2026-04-25 12:23 6.19990 97.52535 38881 ft 469 kts 107°
2026-04-25 12:24 6.17517 97.58582 38884 ft 467 kts 120°
2026-04-25 12:24 6.13783 97.63897 38894 ft 466 kts 131°
2026-04-25 12:25 6.10239 97.67972 38878 ft 466 kts 132°
2026-04-25 12:25 6.05213 97.73693 38879 ft 467 kts 132°
2026-04-25 12:26 6.00934 97.78615 38886 ft 467 kts 131°
2026-04-25 12:26 5.96672 97.83551 38883 ft 467 kts 131°
2026-04-25 12:27 5.92452 97.88444 38887 ft 466 kts 131°
2026-04-25 12:27 5.88206 97.93367 38886 ft 466 kts 131°
2026-04-25 12:28 5.83962 97.98284 38886 ft 466 kts 131°
2026-04-25 12:28 5.79720 98.03195 38888 ft 466 kts 131°
2026-04-25 12:29 5.75680 98.07873 38891 ft 466 kts 131°
2026-04-25 12:29 5.71415 98.12809 38888 ft 467 kts 131°
2026-04-25 12:30 5.67151 98.17742 38886 ft 467 kts 131°
2026-04-25 12:30 5.62888 98.22673 38881 ft 468 kts 130°
2026-04-25 12:31 5.58616 98.27615 38897 ft 470 kts 130°
2026-04-25 12:31 5.54342 98.32557 38891 ft 471 kts 130°
2026-04-25 12:32 5.50037 98.37534 38886 ft 472 kts 130°
2026-04-25 12:32 5.45727 98.42515 38888 ft 473 kts 130°
2026-04-25 12:33 5.41411 98.47503 38884 ft 472 kts 130°
2026-04-25 12:33 5.37113 98.52467 38889 ft 472 kts 130°
2026-04-25 12:34 5.32806 98.57441 38889 ft 471 kts 130°
2026-04-25 12:34 5.28514 98.62397 38889 ft 470 kts 130°
2026-04-25 12:35 5.24227 98.67346 38886 ft 470 kts 130°
2026-04-25 12:35 5.19969 98.72260 38885 ft 469 kts 130°
2026-04-25 12:36 5.15686 98.77203 38896 ft 469 kts 130°
2026-04-25 12:36 5.11398 98.82149 38887 ft 470 kts 130°
2026-04-25 12:37 5.07110 98.87095 38882 ft 470 kts 130°
2026-04-25 12:37 5.02816 98.92047 38899 ft 471 kts 130°
2026-04-25 12:38 4.98509 98.97012 38900 ft 471 kts 130°
2026-04-25 12:38 4.94207 99.01970 38889 ft 471 kts 130°
2026-04-25 12:39 4.89908 99.06924 38883 ft 471 kts 130°
2026-04-25 12:39 4.86326 99.11051 38903 ft 471 kts 130°
2026-04-25 12:40 4.82024 99.16007 38880 ft 471 kts 130°
2026-04-25 12:40 4.77719 99.20965 38878 ft 471 kts 130°
2026-04-25 12:41 4.73450 99.25881 38899 ft 470 kts 130°
2026-04-25 12:41 4.69155 99.30826 38898 ft 470 kts 130°
2026-04-25 12:42 4.64866 99.35762 38882 ft 469 kts 130°
2026-04-25 12:42 4.60581 99.40695 38882 ft 469 kts 130°
2026-04-25 12:43 4.56898 99.46064 38895 ft 467 kts 114°
2026-04-25 12:43 4.54883 99.55568 38897 ft 470 kts 92°
2026-04-25 12:44 4.54800 99.62137 38894 ft 473 kts 90°
2026-04-25 12:45 4.54808 99.72047 38897 ft 475 kts 90°
2026-04-25 12:45 4.54840 99.81957 38896 ft 476 kts 90°
2026-04-25 12:46 4.54864 99.88595 38896 ft 476 kts 89°
2026-04-25 12:46 4.54888 99.95224 38887 ft 475 kts 89°
2026-04-25 12:47 4.54913 100.01845 38887 ft 474 kts 89°
2026-04-25 12:47 4.54937 100.08438 38888 ft 473 kts 89°
2026-04-25 12:48 4.54960 100.15021 38878 ft 472 kts 89°
2026-04-25 12:48 4.54983 100.21602 38875 ft 472 kts 90°
2026-04-25 12:49 4.55006 100.28163 38880 ft 470 kts 90°
2026-04-25 12:49 4.55029 100.34724 38747 ft 468 kts 90°
2026-04-25 12:50 4.55039 100.37974 38385 ft 469 kts 90°
2026-04-25 12:50 4.55050 100.41262 37908 ft 472 kts 90°
2026-04-25 12:50 4.55061 100.44560 37431 ft 475 kts 90°
2026-04-25 12:50 4.55071 100.47839 36966 ft 477 kts 90°
2026-04-25 12:51 4.55082 100.51179 36510 ft 479 kts 90°
2026-04-25 12:51 4.55093 100.54525 36073 ft 481 kts 90°
2026-04-25 12:51 4.55103 100.57871 35630 ft 482 kts 90°
2026-04-25 12:51 4.55048 100.61243 35146 ft 484 kts 95°
2026-04-25 12:52 4.54515 100.64578 34986 ft 485 kts 104°
2026-04-25 12:52 4.53587 100.67827 34883 ft 486 kts 108°
2026-04-25 12:52 4.51395 100.74229 34856 ft 485 kts 110°
2026-04-25 12:53 4.49126 100.80605 34866 ft 486 kts 110°
2026-04-25 12:53 4.46844 100.86970 34868 ft 484 kts 110°
2026-04-25 12:54 4.45574 100.90078 34703 ft 482 kts 117°
2026-04-25 12:54 4.43769 100.92910 34371 ft 483 kts 129°
2026-04-25 12:54 4.41385 100.95274 33991 ft 486 kts 142°
2026-04-25 12:54 4.38550 100.97153 33568 ft 488 kts 150°
2026-04-25 12:55 4.35499 100.98651 33169 ft 490 kts 156°
2026-04-25 12:55 4.33411 100.99526 32893 ft 491 kts 158°
2026-04-25 12:55 4.29141 101.01181 32339 ft 493 kts 158°
2026-04-25 12:55 4.25943 101.02415 31953 ft 493 kts 158°
2026-04-25 12:56 4.22762 101.03678 31671 ft 491 kts 157°
2026-04-25 12:56 4.19608 101.04969 31442 ft 487 kts 156°
2026-04-25 12:56 4.16528 101.06257 31230 ft 485 kts 156°
2026-04-25 12:56 4.13427 101.07568 31002 ft 483 kts 156°
2026-04-25 12:57 4.10301 101.08894 30748 ft 481 kts 156°
2026-04-25 12:57 4.07263 101.10182 30503 ft 480 kts 156°
2026-04-25 12:57 4.04198 101.11479 30268 ft 478 kts 156°
2026-04-25 12:57 4.01133 101.12774 30056 ft 476 kts 156°
2026-04-25 12:58 3.98084 101.14062 29805 ft 475 kts 156°
2026-04-25 12:58 3.95045 101.15344 29553 ft 473 kts 156°
2026-04-25 12:58 3.92026 101.16617 29306 ft 471 kts 156°
2026-04-25 12:58 3.89012 101.17889 29063 ft 469 kts 156°
2026-04-25 12:59 3.86007 101.19157 28790 ft 467 kts 156°
2026-04-25 12:59 3.83016 101.20419 28142 ft 467 kts 156°
2026-04-25 12:59 3.80034 101.21677 27509 ft 463 kts 156°
2026-04-25 12:59 3.77142 101.23040 27076 ft 455 kts 147°
2026-04-25 13:00 3.74688 101.25038 26763 ft 455 kts 132°
2026-04-25 13:00 3.73249 101.26628 26528 ft 454 kts 130°
2026-04-25 13:00 3.70477 101.29719 26154 ft 447 kts 131°
2026-04-25 13:00 3.68399 101.32001 25899 ft 442 kts 131°
2026-04-25 13:01 3.66320 101.34258 25657 ft 441 kts 131°
2026-04-25 13:01 3.64224 101.36511 25411 ft 440 kts 131°
2026-04-25 13:01 3.62133 101.38746 25178 ft 440 kts 132°
2026-04-25 13:01 3.60043 101.40974 24940 ft 439 kts 132°
2026-04-25 13:02 3.57952 101.43201 24691 ft 438 kts 132°
2026-04-25 13:02 3.55866 101.45423 24451 ft 436 kts 132°
2026-04-25 13:02 3.53792 101.47632 24214 ft 435 kts 131°
2026-04-25 13:02 3.51720 101.49840 23976 ft 434 kts 131°
2026-04-25 13:03 3.49654 101.52041 23736 ft 433 kts 131°
2026-04-25 13:03 3.47599 101.54231 23495 ft 431 kts 131°
2026-04-25 13:03 3.45573 101.56390 23231 ft 429 kts 131°
2026-04-25 13:03 3.43533 101.58565 22973 ft 427 kts 131°
2026-04-25 13:04 3.41481 101.60751 22723 ft 424 kts 131°
2026-04-25 13:04 3.39494 101.62868 22497 ft 422 kts 131°
2026-04-25 13:04 3.37491 101.65002 22268 ft 419 kts 131°
2026-04-25 13:04 3.35505 101.67118 22036 ft 417 kts 131°
2026-04-25 13:05 3.33521 101.69232 21814 ft 415 kts 131°
2026-04-25 13:05 3.31547 101.71335 21579 ft 414 kts 131°
2026-04-25 13:05 3.29584 101.73427 21365 ft 412 kts 131°
2026-04-25 13:05 3.27624 101.75513 21129 ft 411 kts 131°
2026-04-25 13:06 3.25613 101.77538 20907 ft 410 kts 135°
2026-04-25 13:06 3.23490 101.79439 20688 ft 409 kts 137°
2026-04-25 13:06 3.21325 101.81289 20457 ft 408 kts 137°
2026-04-25 13:06 3.19161 101.83122 20243 ft 407 kts 137°
2026-04-25 13:07 3.17006 101.84958 20022 ft 406 kts 137°
2026-04-25 13:07 3.14866 101.86798 19792 ft 405 kts 137°
2026-04-25 13:07 3.12738 101.88642 19568 ft 403 kts 137°
2026-04-25 13:07 3.10625 101.90481 19362 ft 402 kts 137°
2026-04-25 13:08 3.08525 101.92313 19136 ft 401 kts 136°
2026-04-25 13:08 3.06454 101.94184 18915 ft 397 kts 132°
2026-04-25 13:08 3.04724 101.96311 18704 ft 393 kts 122°
2026-04-25 13:08 3.03260 101.98611 18487 ft 391 kts 119°
2026-04-25 13:09 3.01874 102.00945 18260 ft 389 kts 118°
2026-04-25 13:09 3.00531 102.03275 18021 ft 381 kts 116°
2026-04-25 13:09 2.99660 102.05709 17910 ft 365 kts 97°
2026-04-25 13:09 2.99518 102.08207 17905 ft 358 kts 90°
2026-04-25 13:10 2.99502 102.09851 17908 ft 357 kts 90°
2026-04-25 13:10 2.99484 102.13168 17823 ft 355 kts 90°
2026-04-25 13:10 2.99476 102.15637 17564 ft 354 kts 90°
2026-04-25 13:10 2.99271 102.18033 17179 ft 352 kts 104°
2026-04-25 13:11 2.98248 102.20251 16709 ft 355 kts 124°
2026-04-25 13:11 2.96467 102.21959 16233 ft 357 kts 145°
2026-04-25 13:11 2.94180 102.22912 15763 ft 361 kts 166°
2026-04-25 13:11 2.91672 102.22988 15315 ft 364 kts 187°
2026-04-25 13:12 2.89275 102.22167 14854 ft 366 kts 207°
2026-04-25 13:12 2.87182 102.20737 14601 ft 361 kts 216°
2026-04-25 13:12 2.85256 102.19197 14522 ft 348 kts 218°
2026-04-25 13:12 2.84004 102.18163 14456 ft 341 kts 218°
2026-04-25 13:13 2.81635 102.16194 14262 ft 329 kts 218°
2026-04-25 13:13 2.79888 102.14736 14015 ft 325 kts 218°
2026-04-25 13:13 2.78155 102.13286 13693 ft 323 kts 218°
2026-04-25 13:13 2.76432 102.11843 13300 ft 323 kts 218°
2026-04-25 13:14 2.74713 102.10402 12948 ft 321 kts 218°
2026-04-25 13:14 2.73029 102.08945 12587 ft 318 kts 223°
2026-04-25 13:14 2.71547 102.07336 12203 ft 319 kts 228°
2026-04-25 13:14 2.70118 102.05611 11893 ft 316 kts 230°
2026-04-25 13:15 2.68755 102.03931 11567 ft 315 kts 230°
2026-04-25 13:15 2.67216 102.02437 11124 ft 309 kts 210°
2026-04-25 13:15 2.65229 102.01686 10702 ft 305 kts 187°
2026-04-25 13:15 2.63135 102.01462 10429 ft 301 kts 181°
2026-04-25 13:16 2.61052 102.01353 10142 ft 298 kts 180°
2026-04-25 13:16 2.58987 102.01263 9819 ft 297 kts 180°
2026-04-25 13:16 2.56928 102.01177 9434 ft 292 kts 180°
2026-04-25 13:16 2.54939 102.00851 8753 ft 293 kts 200°
2026-04-25 13:17 2.53237 101.99728 8063 ft 296 kts 223°
2026-04-25 13:17 2.51870 101.98221 7633 ft 288 kts 229°
2026-04-25 13:17 2.50628 101.96714 7382 ft 273 kts 230°
2026-04-25 13:17 2.49465 101.95280 7135 ft 259 kts 230°
2026-04-25 13:18 2.48354 101.93904 6815 ft 251 kts 230°
2026-04-25 13:18 2.47296 101.92543 6431 ft 245 kts 238°
2026-04-25 13:18 2.46780 101.90937 5920 ft 244 kts 270°
2026-04-25 13:18 2.47068 101.89273 5443 ft 241 kts 293°
2026-04-25 13:19 2.47963 101.87954 5261 ft 228 kts 320°
2026-04-25 13:19 2.49146 101.86910 5050 ft 220 kts 324°
2026-04-25 13:19 2.50338 101.85996 4766 ft 218 kts 327°
2026-04-25 13:19 2.50756 101.85699 4671 ft 218 kts 328°
2026-04-25 13:20 2.52820 101.84288 4171 ft 215 kts 329°
2026-04-25 13:20 2.54060 101.83453 3909 ft 213 kts 329°
2026-04-25 13:20 2.55281 101.82630 3657 ft 208 kts 329°
2026-04-25 13:20 2.56468 101.81830 3380 ft 203 kts 329°
2026-04-25 13:21 2.57628 101.81049 3116 ft 198 kts 329°
2026-04-25 13:21 2.58758 101.80288 2862 ft 193 kts 329°
2026-04-25 13:21 2.59857 101.79547 2622 ft 188 kts 328°
2026-04-25 13:21 2.60924 101.78828 2379 ft 180 kts 328°
2026-04-25 13:22 2.61942 101.78142 2170 ft 175 kts 328°
2026-04-25 13:22 2.62941 101.77469 1945 ft 171 kts 328°
2026-04-25 13:22 2.63895 101.76827 1723 ft 159 kts 327°
2026-04-25 13:23 2.65681 101.75620 1344 ft 156 kts 327°
2026-04-25 13:23 2.66586 101.75011 1150 ft 156 kts 327°
2026-04-25 13:23 2.67486 101.74408 948 ft 155 kts 327°
2026-04-25 13:23 2.68373 101.73805 772 ft 152 kts 327°
2026-04-25 13:24 2.69250 101.73211 618 ft 152 kts 327°
2026-04-25 13:24 2.69831 101.72818 461 ft 152 kts 327°
2026-04-25 13:24 2.70976 101.72037 211 ft 151 kts 327°
2026-04-25 13:24 2.71571 101.71641 65 ft 152 kts 327°
2026-04-25 13:25 2.72383 101.71099 53 ft 122 kts 326°
2026-04-25 13:25 2.73105 101.70614 61 ft 66 kts 326°
2026-04-25 13:25 2.73359 101.70482 60 ft 30 kts 345°
2026-04-25 13:25 2.73496 101.70462 60 ft 29 kts 356°
2026-04-25 13:26 2.73670 101.70450 53 ft 21 kts 351°
2026-04-25 13:26 2.73771 101.70398 55 ft 16 kts 326°
2026-04-25 13:26 2.73862 101.70337 53 ft 16 kts 326°
2026-04-25 13:26 2.73953 101.70276 53 ft 17 kts 326°
2026-04-25 13:27 2.74052 101.70210 54 ft 17 kts 326°
2026-04-25 13:27 2.74148 101.70145 56 ft 17 kts 326°
2026-04-25 13:27 2.74247 101.70080 55 ft 17 kts 326°
2026-04-25 13:27 2.74331 101.70024 60 ft 10 kts 326°
2026-04-25 13:28 2.74382 101.70007 58 ft 8 kts 12°
2026-04-25 13:28 2.74413 101.70028 60 ft 8 kts 44°
2026-04-25 13:28 2.74458 101.70091 60 ft 8 kts 56°
2026-04-25 13:28 2.74493 101.70143 63 ft 11 kts 56°
2026-04-25 13:29 2.74543 101.70217 63 ft 14 kts 56°
2026-04-25 13:29 2.74604 101.70308 64 ft 17 kts 56°
2026-04-25 13:29 2.74672 101.70409 65 ft 17 kts 56°
2026-04-25 13:30 2.74807 101.70611 68 ft 17 kts 56°
2026-04-25 13:30 2.74875 101.70712 68 ft 17 kts 56°
2026-04-25 13:30 2.74938 101.70803 68 ft 14 kts 54°
2026-04-25 13:31 2.75052 101.70963 72 ft 14 kts 56°
2026-04-25 13:31 2.75107 101.71044 70 ft 14 kts 56°
2026-04-25 13:31 2.75162 101.71125 69 ft 14 kts 55°
2026-04-25 13:31 2.75208 101.71192 69 ft 8 kts 56°
2026-04-25 13:32 2.75221 101.71242 73 ft 8 kts 105°
2026-04-25 13:32 2.75184 101.71280 68 ft 8 kts 144°
2026-04-25 13:32 2.75140 101.71311 73 ft 8 kts 146°
2026-04-25 13:32 2.75096 101.71341 69 ft 6 kts 146°
2026-04-25 13:33 2.75064 101.71353 69 ft 5 kts 186°
2026-04-25 13:33 2.75038 101.71333 68 ft 5 kts 228°
2026-04-25 13:33 2.75025 101.71316 67 ft 2 kts 234°
2026-04-25 13:33 2.75019 101.71307 69 ft 2 kts 234°
2026-04-25 13:34 2.75012 101.71298 69 ft 0 kts 235°